User: anonymous   Login
Location: Ergnies
(50.0854°N, 2.0375°E)
Time: 05:01:00
(UTC+00:00)
Language:

Cosmos 1805 Rocket - Orbit

View from above orbital plane
View from above orbital plane
View from above satellite
View from above satellite

Ground track
Ground track

The orbit is defined by the following mean orbital elements,

1 17192U          26066.71907397 +.00000000 +00000-0 +73237-4 0 00002
2 17192  82.5078 144.0155 0016994  36.1312  84.1809 14.85911998    02
Epoch (UTC): 07 March 2026 17:15:27
Eccentricity: 0.0016994
inclination: 82.5078°
perigee height: 599 km
apogee height: 623 km
right ascension of ascending node: 144.0155°
argument of perigee: 36.1312°
revolutions per day: 14.85911998
mean anomaly at epoch: 84.1809°

The dashed part of the orbit path shows where the satellite is in the earth's shadow,  

DLR